Location: Franzen
(48.6167°N, 15.3833°E)
Time: 16:04:37
(UTC+00:00)

Transit 2A Rocket - Pass Details

Date: 01 August 2021
Orbit: 586 x 916 km, 66.7° (Epoch: 23 September)

Event Time Altitude Azimuth Distance (km) Brightness Sun altitude
Rises 22:29:20 0° 317° (NW) 3,285 9.2 -23.1°
Reaches altitude 10° 22:31:53 10° 308° (NW) 2,404 8.2 -23.2°
Maximum altitude 22:36:45 32° 247° (WSW) 1,443 6.2 -23.3°
Enters shadow 22:37:27 31° 234° (SW) 1,478 6.2 -23.3°
